User: anonymous   Login
Location: Haram ta Haram Freeway
(35.0583°N, 51.4202°E)
Time: 07:25:37
(UTC+04:30)
Language:

CAS-4A - Orbit

View from above orbital plane
View from above orbital plane
View from above satellite
View from above satellite

Ground track
Ground track

The orbit data is extracted from the following two-line orbital elements,

1 42761U 17034D   21127.81284059  .00000468  00000-0  41403-4 0  9999
2 42761  43.0190  43.5865 0010637 274.8097 186.1596 15.10266499215001
Epoch (UTC): 07 May 2021 19:30:29
Eccentricity: 0.0010637
inclination: 43.0190°
perigee height: 528 km
apogee height: 543 km
right ascension of ascending node: 43.5865°
argument of perigee: 274.8097°
revolutions per day: 15.10266499
mean anomaly at epoch: 186.1596°
orbit number at epoch: 21500

The dashed part of the orbit path shows where the satellite is in the earth's shadow,  

DLR